Location: Larkspur
(54.4391°N, 113.7691°W)
Time: 14:27:29
(UTC+00:00)

Oscar 19 - Pass Details

Date: 02 December 2023
Orbit: 771 x 789 km, 98.9° (Epoch: 01 March)

Event Time Altitude Azimuth Distance (km) Brightness Sun altitude
Rises 11:56:39 0° 20° (NNE) 3,271 14.2 -30.4°
Reaches altitude 10° 11:59:05 10° 27° (NNE) 2,341 13.4 -30.0°
Maximum altitude 12:04:00 44° 99° (E) 1,082 11.7 -29.3°
Drops below altitude 10° 12:08:55 10° 171° (S) 2,336 13.2 -28.6°
Sets 12:11:20 0° 178° (S) 3,262 13.9 -28.2°
